Vorticity
6 8 8 7 5 5 6 5 5 5 6 6 6 7 8 8 8 7 7 7 6 6 6 6 7 7 9 9 8 8 8 7 7 6 6 7 7 7 7 7 8 9
5 6 7 7 6 5 6 6 6 6 6 6 7 7 7 9 9 8 8 7 6 6 5 5 5 6 8 9 9 9 9 9 8 7 6 7 7 7 7 7 7 7
6 6 6 6 7 6 6 6 5 6 6 6 7 7 7 8 9 9 9 9 7 6 5 5 5 5 6 8 9 10 10 9 9 8 7 7 7 7 8 8 8 7
7 7 7 6 6 6 6 6 6 6 6 6 6 7 7 7 9 9 9 10 9 7 6 6 5 5 6 6 7 9 10 10 10 9 9 8 8 7 7 8 8 8
7 7 7 7 6 6 5 5 6 6 6 6 6 6 7 6 7 8 9 10 10 8 7 7 7 7 7 7 7 7 8 9 9 9 9 9 9 8 8 8 8 8
5 6 6 7 6 5 5 5 5 6 7 7 6 6 7 7 6 6 8 10 10 9 7 7 8 8 8 8 8 7 7 7 8 9 9 9 9 10 9 9 9 8
5 5 5 6 7 6 6 5 4 5 6 7 6 6 6 7 7 6 8 9 10 10 9 7 7 7 7 7 8 8 8 7 7 8 8 8 8 9 10 10 10 10
6 6 5 5 6 7 6 6 5 5 6 6 6 6 7 7 7 7 7 9 10 11 10 8 7 7 7 7 7 8 8 7 7 8 8 8 7 8 9 9 10 10
8 7 7 5 5 6 7 6 5 5 5 5 5 5 6 7 6 6 6 7 8 10 11 9 7 7 6 6 6 5 6 7 6 7 7 8 8 9 9 8 9 10
9 8 8 7 5 5 6 7 6 6 4 5 5 5 5 6 6 6 6 6 6 7 10 10 8 8 7 6 6 5 6 6 6 7 7 7 8 8 8 8 8 8
8 9 9 9 7 5 5 6 6 7 6 5 6 6 5 5 5 6 6 6 6 6 8 9 8 8 8 7 7 7 7 7 7 7 6 6 7 7 8 7 7 7
10 10 9 9 9 7 5 5 5 7 7 6 6 6 6 6 4 5 6 6 7 6 6 7 7 7 7 7 7 7 7 7 8 8 7 6 6 6 7 6 5 6
12 12 11 11 11 10 8 6 4 5 6 7 7 6 7 7 5 4 5 6 7 7 6 6 6 6 6 7 7 7 7 7 7 7 7 7 6 6 6 6 5 4
7 10 12 12 12 12 12 10 7 5 5 5 6 7 6 6 6 6 5 5 6 7 7 7 6 6 6 7 7 7 7 7 7 7 7 6 6 5 5 5 5 5
4 5 8 10 11 11 12 12 11 9 7 4 4 6 7 6 5 5 6 6 5 6 7 7 6 6 6 6 7 7 7 7 6 6 6 6 6 5 5 5 5 5
3 4 4 4 7 9 10 12 13 11 10 8 6 5 6 7 7 6 5 5 5 5 6 6 6 6 6 6 6 6 7 7 7 6 6 6 6 5 6 6 6 6
1 3 4 3 1 2 4 7 10 11 12 12 10 8 6 6 7 7 6 6 5 5 5 5 6 6 6 6 6 7 6 6 6 6 6 6 6 6 6 6 6 6
6 4 3 2 1 -0 1 3 4 6 9 11 12 12 9 7 7 7 7 7 6 6 5 5 5 5 6 6 7 7 7 7 7 6 6 5 5 5 6 6 6 6
11 10 6 1 0 1 2 3 3 4 5 6 9 11 10 9 8 6 6 7 7 7 6 5 4 5 5 6 7 7 6 7 7 7 6 6 6 6 5 6 6 7
13 11 10 6 4 5 4 2 3 6 6 5 7 10 11 10 10 8 6 5 7 7 7 7 7 7 6 5 5 6 6 6 6 6 6 6 6 6 6 6 6 6
22 16 17 16 12 7 4 4 7 10 8 5 6 7 6 6 9 11 9 7 6 6 6 7 7 6 7 7 5 4 4 5 5 5 5 6 6 6 5 5 5 5
20 19 21 27 28 20 14 12 13 13 10 9 9 8 6 5 6 9 11 10 8 5 5 7 7 6 6 7 7 6 5 5 5 5 5 5 5 5 5 5 5 5
13 17 17 20 25 26 24 20 17 16 17 16 14 14 13 9 5 6 9 9 11 11 9 6 5 6 7 7 6 6 6 6 5 4 5 5 5 5 5 5 5 5
11 15 17 17 17 15 15 16 14 14 16 14 14 22 26 19 10 8 9 11 14 16 15 10 6 5 5 6 7 8 7 7 8 6 5 5 5 6 6 6 6 6
-1 -3 2 12 19 18 15 14 14 17 19 14 12 21 27 26 20 15 11 10 9 9 8 7 7 7 6 4 5 6 6 6 6 7 7 6 6 6 6 6 6 5
8 3 -1 2 8 11 12 12 12 18 22 21 21 23 23 25 30 31 26 15 5 6 10 8 6 8 8 6 5 5 5 6 6 6 6 6 6 6 6 6 6 6
Height
5951 5953 5954 5954 5955 5956 5957 5958 5958 5959 5960 5960 5961 5962 5963 5964 5965 5966 5966 5967 5967 5968 5969 5969 5970 5970 5971 5972 5972 5973 5973 5974 5974 5974 5974 5974 5974 5975 5975 5975 5975 5976
5950 5951 5952 5953 5954 5955 5956 5957 5958 5959 5959 5960 5960 5961 5962 5963 5964 5965 5966 5966 5967 5968 5968 5969 5970 5970 5971 5972 5972 5973 5973 5974 5974 5974 5974 5974 5975 5975 5975 5975 5975 5976
5949 5950 5951 5952 5953 5954 5955 5956 5957 5958 5958 5959 5960 5961 5962 5962 5963 5964 5965 5965 5966 5967 5968 5969 5969 5970 5971 5971 5972 5972 5973 5973 5973 5974 5974 5974 5975 5975 5975 5975 5975 5976
5948 5949 5950 5951 5952 5953 5954 5955 5956 5957 5958 5959 5959 5960 5961 5962 5962 5963 5964 5965 5965 5966 5967 5968 5969 5969 5970 5971 5971 5972 5972 5973 5973 5973 5974 5974 5975 5975 5975 5976 5976 5976
5947 5948 5949 5950 5951 5952 5953 5954 5955 5956 5957 5958 5958 5959 5960 5961 5962 5962 5963 5964 5965 5966 5967 5967 5968 5969 5969 5970 5971 5971 5972 5972 5973 5973 5973 5974 5974 5975 5975 5976 5976 5976
5945 5946 5947 5948 5949 5950 5951 5952 5953 5955 5956 5956 5957 5958 5959 5959 5960 5961 5962 5963 5964 5965 5966 5967 5967 5968 5969 5969 5970 5970 5971 5971 5972 5972 5973 5973 5974 5974 5975 5975 5976 5976
5944 5945 5946 5947 5948 5949 5950 5951 5952 5953 5954 5955 5956 5957 5957 5958 5959 5960 5961 5962 5963 5964 5965 5965 5966 5967 5968 5968 5969 5969 5970 5970 5970 5971 5972 5972 5973 5973 5974 5975 5975 5975
5943 5944 5945 5946 5947 5948 5948 5949 5950 5951 5952 5953 5954 5955 5956 5957 5958 5959 5960 5961 5962 5963 5963 5964 5965 5966 5967 5967 5968 5968 5969 5969 5969 5970 5971 5971 5972 5972 5973 5974 5974 5975
5941 5942 5943 5944 5945 5946 5947 5948 5949 5950 5950 5951 5952 5954 5955 5955 5956 5957 5958 5959 5960 5961 5962 5963 5964 5965 5966 5966 5967 5967 5968 5968 5968 5969 5969 5970 5971 5971 5972 5972 5973 5973
5938 5940 5941 5942 5943 5944 5945 5946 5947 5948 5949 5950 5951 5952 5953 5954 5955 5956 5957 5958 5959 5960 5961 5962 5963 5964 5964 5965 5966 5966 5967 5967 5968 5968 5968 5969 5969 5970 5970 5971 5971 5972
5936 5937 5938 5940 5941 5942 5943 5945 5946 5947 5948 5949 5950 5951 5952 5953 5954 5955 5955 5956 5957 5958 5959 5960 5961 5962 5963 5964 5964 5965 5966 5966 5967 5967 5968 5968 5968 5968 5969 5969 5970 5970
5934 5935 5936 5938 5939 5940 5941 5943 5944 5945 5946 5948 5949 5950 5951 5952 5953 5954 5954 5955 5956 5957 5958 5958 5959 5960 5961 5962 5963 5963 5964 5965 5966 5966 5967 5967 5967 5967 5967 5967 5968 5968
5933 5934 5935 5936 5937 5938 5939 5940 5942 5943 5944 5945 5947 5948 5949 5950 5951 5952 5953 5954 5955 5955 5956 5957 5957 5958 5959 5960 5961 5961 5962 5963 5964 5965 5965 5966 5966 5966 5966 5966 5966 5966
5932 5933 5933 5934 5935 5936 5937 5938 5939 5941 5942 5943 5944 5946 5947 5948 5949 5950 5951 5952 5953 5953 5954 5955 5955 5956 5957 5958 5959 5960 5960 5961 5962 5962 5963 5963 5964 5964 5965 5965 5965 5966
5930 5930 5931 5932 5933 5934 5935 5936 5937 5938 5939 5941 5942 5943 5944 5945 5946 5947 5948 5949 5950 5951 5952 5953 5953 5954 5955 5955 5956 5957 5958 5959 5959 5960 5960 5961 5962 5962 5963 5964 5964 5965
5927 5928 5929 5930 5931 5932 5933 5934 5935 5936 5937 5938 5940 5941 5942 5942 5943 5943 5944 5945 5946 5947 5949 5950 5950 5951 5952 5953 5954 5955 5956 5956 5957 5958 5958 5958 5959 5960 5961 5961 5962 5963
5924 5926 5927 5928 5929 5930 5931 5932 5933 5934 5935 5936 5937 5938 5939 5939 5940 5941 5941 5942 5943 5944 5945 5946 5947 5948 5949 5950 5951 5952 5953 5954 5954 5955 5955 5956 5956 5957 5958 5959 5960 5960
5921 5922 5924 5925 5925 5926 5927 5929 5930 5931 5932 5933 5933 5935 5936 5936 5937 5938 5938 5939 5940 5940 5942 5943 5944 5945 5946 5948 5949 5950 5951 5951 5952 5952 5953 5953 5954 5954 5955 5956 5957 5958
5917 5918 5919 5921 5922 5923 5924 5925 5926 5927 5928 5929 5929 5930 5931 5933 5934 5934 5935 5936 5936 5937 5939 5940 5942 5943 5944 5945 5946 5947 5948 5949 5949 5950 5950 5951 5952 5952 5953 5954 5954 5955
5912 5914 5915 5916 5917 5919 5920 5921 5922 5923 5924 5925 5925 5926 5927 5929 5930 5931 5932 5932 5933 5935 5935 5937 5939 5940 5940 5941 5942 5944 5945 5946 5946 5947 5948 5948 5949 5950 5950 5951 5952 5952
5909 5910 5911 5912 5913 5914 5916 5917 5918 5919 5920 5920 5921 5922 5924 5925 5926 5927 5928 5929 5930 5931 5931 5933 5935 5936 5936 5938 5939 5940 5941 5942 5943 5944 5945 5946 5946 5947 5948 5949 5949 5950
5906 5906 5907 5908 5908 5909 5911 5912 5914 5915 5915 5916 5917 5918 5919 5921 5922 5922 5923 5924 5926 5926 5927 5929 5931 5931 5932 5934 5935 5936 5937 5938 5939 5940 5941 5942 5943 5944 5945 5946 5946 5947
5903 5903 5904 5904 5905 5905 5906 5908 5909 5911 5912 5913 5913 5913 5914 5915 5917 5918 5919 5920 5921 5922 5924 5926 5927 5927 5929 5930 5931 5932 5933 5934 5935 5936 5937 5938 5940 5940 5941 5942 5943 5944
5900 5900 5901 5901 5902 5902 5903 5904 5905 5907 5909 5909 5908 5908 5908 5909 5911 5915 5917 5918 5918 5919 5921 5922 5923 5924 5925 5926 5927 5928 5930 5931 5932 5933 5933 5934 5935 5936 5938 5939 5940 5940
5897 5898 5898 5898 5899 5900 5901 5902 5902 5903 5904 5904 5904 5904 5904 5904 5906 5910 5913 5912 5911 5913 5915 5915 5917 5919 5920 5921 5923 5924 5926 5927 5928 5929 5930 5931 5931 5933 5934 5935 5936 5937
5893 5894 5895 5896 5897 5898 5899 5899 5899 5900 5900 5900 5901 5901 5901 5901 5902 5904 5906 5904 5903 5905 5908 5908 5910 5913 5915 5917 5919 5920 5921 5923 5924 5925 5926 5927 5928 5929 5930 5932 5933 5933